Home > Weather > St. George > Past weeks

Flag for USA Past Weather in St. George, Utah, USA — Yesterday and Last 2 Weeks

Now
97 °F

Sunny.


Feels Like: 94 °F
Forecast: 78 / 98 °F
Wind: 12 mph from West

Location: Saint George

Current Time: Jun 30, 2016 at 5:09:54 PM

Latest Report: Jun 30, 2016 at 4:35 PM


Visibility: 10 mi

Pressure: 29.89 "Hg (27.23 "Hg at 842m altitude)

Humidity: 22%

Dew Point: 52 °F

Location of St. GeorgeLocation

Past Weather in St. George — Graph

°F

St. George Temperature Yesterday

Maximum temperature yesterday: 106 °F (at 3:55 PM)
Minimum temperature yesterday: 77 °F (at 6:35 AM)
Average temperature yesterday: 91 °F

High & Low Weather Summary for the Past Weeks

 TemperatureHumidityPressure
High109 °F (Jun 21, 2:55 PM)32% (Jun 29, 6:35 AM)30.16 "Hg (Jun 29, 6:35 AM)
Low66 °F (Jun 16, 6:15 AM)9% (Jun 17, 3:55 PM)29.76 "Hg (Jun 15, 6:15 PM)
Average90 °F14%29.98 "Hg
* Reported Jun 15 4:15 PM — Jun 30 4:15 PM, St. George, Weather by CustomWeather, © 2016

Note: Actual official high and low records may vary slightly from our data, if they occured in-between our weather recording intervals... More about our weather records

Advertising

St. George Weather History for the Previous 24 Hours

Scroll right to see more
 ConditionsComfort  
Time TempWeatherWind HumidityBarometerVisibility
4:15 PM
Thu, Jun 30
99 °FPassing clouds.7 mph22%29.90 "Hg10 mi
3:35 PM99 °FSunny.13 mph21%29.92 "Hg10 mi
3:15 PM95 °FSunny.14 mph23%29.93 "Hg10 mi
2:55 PM95 °FSunny.7 mph23%29.94 "Hg10 mi
2:35 PM97 °FSunny.16 mph22%29.94 "Hg10 mi
2:15 PM97 °FSunny.8 mph22%29.95 "Hg10 mi
1:55 PM97 °FSunny.12 mph20%29.96 "Hg10 mi
1:35 PM97 °FSunny.7 mph20%29.98 "Hg10 mi
1:15 PM97 °FSunny.15 mph20%29.98 "Hg10 mi
12:55 PM97 °FSunny.7 mph20%29.99 "Hg10 mi
12:35 PM95 °FSunny.3 mph22%30.01 "Hg10 mi
12:15 PM95 °FSunny.13 mph22%30.01 "Hg10 mi
11:55 AM93 °FSunny.10 mph23%30.01 "Hg10 mi
11:35 AM93 °FSunny.6 mph23%30.01 "Hg10 mi
11:15 AM93 °FPassing clouds.10 mph23%30.02 "Hg10 mi
10:55 AM93 °FScattered clouds.5 mph23%30.02 "Hg10 mi
10:35 AM93 °FSunny.6 mph23%30.02 "Hg10 mi
10:15 AM91 °FSunny.9 mph24%30.03 "Hg10 mi
9:55 AM91 °FSunny.12 mph24%30.03 "Hg10 mi
9:35 AM90 °FSunny.8 mph24%30.03 "Hg10 mi
9:15 AM90 °FSunny.9 mph24%30.03 "Hg10 mi
8:55 AM88 °FSunny.9 mph25%30.02 "Hg10 mi
8:35 AM84 °FSunny.12 mph29%30.02 "Hg10 mi
8:15 AM84 °FSunny.14 mph29%30.01 "Hg10 mi
7:55 AM82 °FSunny.9 mph28%30.01 "Hg10 mi
7:35 AM82 °FSunny.10 mph28%30.01 "Hg10 mi
7:15 AM81 °FClear.8 mph30%30.00 "Hg10 mi
6:55 AM81 °FClear.8 mph32%29.99 "Hg10 mi
6:35 AM82 °FClear.6 mph28%29.97 "Hg10 mi
6:15 AM82 °FClear.No wind30%29.97 "Hg10 mi
5:55 AM82 °FClear.8 mph30%29.97 "Hg10 mi
5:35 AM82 °FClear.8 mph30%29.96 "Hg10 mi
5:15 AM82 °FClear.17 mph30%29.96 "Hg10 mi
4:55 AM84 °FClear.10 mph29%29.97 "Hg10 mi
4:35 AM84 °FClear.10 mph29%29.98 "Hg10 mi
4:15 AM84 °FClear.14 mph29%29.98 "Hg10 mi
3:55 AM84 °FPassing clouds.5 mph29%29.98 "Hg10 mi
3:35 AM84 °FClear.No wind29%30.00 "Hg10 mi
3:15 AM84 °FClear.5 mph29%29.99 "Hg10 mi
2:55 AM84 °FPassing clouds.8 mph31%29.99 "Hg10 mi
2:35 AM84 °FPassing clouds.10 mph31%29.99 "Hg10 mi
2:15 AM84 °FPartly cloudy.8 mph29%30.01 "Hg10 mi
1:55 AM84 °FPassing clouds.10 mph29%29.99 "Hg10 mi
1:35 AM86 °FClear.12 mph27%29.98 "Hg10 mi
1:15 AM88 °FClear.8 mph25%29.99 "Hg10 mi
12:55 AM88 °FClear.9 mph25%29.99 "Hg10 mi
12:35 AM88 °FClear.8 mph25%30.00 "Hg10 mi
12:15 AM88 °FClear.5 mph25%30.01 "Hg10 mi
11:55 PM
Wed, Jun 29
88 °FClear.3 mph25%30.00 "Hg10 mi
11:35 PM88 °FClear.10 mph25%29.99 "Hg10 mi
11:15 PM88 °FClear.10 mph25%29.97 "Hg10 mi
10:55 PM88 °FClear.15 mph25%29.97 "Hg10 mi
10:35 PM90 °FClear.23 mph24%29.97 "Hg10 mi
10:15 PM90 °FClear.23 mph24%29.96 "Hg10 mi
9:55 PM90 °FSunny.26 mph24%29.96 "Hg10 mi
9:35 PM91 °FSunny.23 mph20%29.94 "Hg10 mi
9:15 PM93 °FSunny.10 mph19%29.93 "Hg10 mi
8:55 PM97 °FSunny.12 mph18%29.92 "Hg10 mi
8:35 PM97 °FSunny.8 mph17%29.92 "Hg10 mi
7:55 PM97 °FSunny.23 mph18%29.90 "Hg10 mi
7:35 PM102 °FSunny.23 mph13%29.89 "Hg10 mi
7:15 PM102 °FThundershowers. Passing clouds.13 mph13%29.89 "Hg10 mi
6:55 PM102 °FThundershowers. Sunny.26 mph13%29.88 "Hg10 mi
6:35 PM102 °FSunny.8 mph14%29.89 "Hg10 mi
6:15 PM102 °FSunny.9 mph14%29.89 "Hg10 mi
5:55 PM104 °FSunny.7 mph13%29.89 "Hg10 mi
5:35 PM102 °FSunny.7 mph14%29.89 "Hg10 mi
5:15 PM102 °FSunny.No wind14%29.90 "Hg10 mi
Weather by CustomWeather, © 2016

See weather overviewHow to use our weather pages